Regional Weather Roundup
Issued by NWS

Home | Current Version | Previous Version | Text Only | Print | Product List | Glossary On
Versions: 1 2 3 4 5 6 7 8 9 10 11 12 13 14 15 16 17 18 19 20 21 22 23 24 25 26 27 28 29 30 31 32 33 34 35 36 37 38 39 40 41 42 43 44 45 46 47 48 49 50
000
ASUS44 KOUN 010710
RWROK

WEATHER ROUNDUP FOR OKLAHOMA
NATIONAL WEATHER SERVICE NORMAN OK
200 AM CDT SAT NOV 01 2014

NOTE: "FAIR" INDICATES FEW OR NO CLOUDS BELOW 12,000 FEET WITH NO
      SIGNIFICANT WEATHER AND/OR OBSTRUCTIONS TO VISIBILITY.

OKZ001>007-009>012-014-015-017-010800-
NORTHWEST OKLAHOMA AND THE PANHANDLE

CITY           SKY/WX    TMP DP  RH WIND       PRES   REMARKS
GAGE           PTCLDY    35  22  58 SE9       30.34F WCI  28
ENID/WOODRING    N/A     32  25  74 E7        30.40S WCI  26
$$

OKZ016-021>023-033>039-044-045-010800-
SOUTHWEST OKLAHOMA

CITY           SKY/WX    TMP DP  RH WIND       PRES   REMARKS
LAWTON/REGL    CLEAR     40  24  53 NE7       30.39R
LAWTON/FT SILL CLEAR     37  26  63 NE6       30.37S WCI  32
FREDERICK      CLEAR     41  26  55 E10       30.35S
CLINTON        CLEAR     39  23  52 E6        30.38F WCI  35
HOBART         CLEAR     36  25  64 E10       30.37F WCI  28
ALTUS AFB      CLEAR     36  26  68 NE6       30.38S WCI  31
$$

OKZ018>020-024>031-010800-
CENTRAL OKLAHOMA

CITY           SKY/WX    TMP DP  RH WIND       PRES   REMARKS
OKLAHOMA CITY  PTCLDY    38  21  50 E8        30.40F WCI  32
OKC/WILEY POST CLEAR     40  22  48 E10       30.40F WCI  33
OKC/TINKER AFB CLEAR     32  22  67 E7        30.40F WCI  26
STILLWATER     CLEAR     31  23  72 NE6       30.43R WCI  25
GUTHRIE        CLEAR     35  23  61 E8        30.41F WCI  29
$$

OKZ008-013-054>072-010800-
NORTHEAST OKLAHOMA

CITY           SKY/WX    TMP DP  RH WIND       PRES   REMARKS
TULSA          PTCLDY    36  23  59 NE6       30.42F WCI  31
TULSA/JONES    CLEAR     34  24  67 NE6       30.43F WCI  29
PONCA CITY     CLEAR     28  22  78 NE3       30.43S
BARTLESVILLE   CLEAR     25  22  88 CALM      30.45F
MUSKOGEE       CLEAR     32  25  75 NE7       30.45S WCI  26
$$

OKZ032-040>043-046>053-073>077-010800-
SOUTH CENTRAL/SOUTHEAST OKLAHOMA

CITY           SKY/WX    TMP DP  RH WIND       PRES   REMARKS
ARDMORE/DWNTWN CLEAR     37  28  70 CALM      30.39S
MCALESTER      PTCLDY    38  26  62 NE5       30.41S WCI  34
$$




USA.gov is the U.S. government's official web portal to all federal, state and local government web resources and services.